Beverly, MA

7:25 PM EDT on September 23, 2017 (GMT -0400)
Beverly Municipal

Weather History for KBVY - May, 2014

Change the Weather History Date:

Saturday, May 3, 2014

  Actual Average Record
Temperature  
Mean Temperature 56 °F -  
Max Temperature 66 °F 61 °F 91 °F (2001)
Min Temperature 46 °F 41 °F 33 °F (2000)
Degree Days  
Heating Degree Days 9    
Growing Degree Days 6 (Base 50)    
Moisture  
Dew Point 40 °F    
Average Humidity 56    
Maximum Humidity 80    
Minimum Humidity 37    
Precipitation  
Precipitation 0.00 in - - ()
Sea Level Pressure  
Sea Level Pressure 29.77 in    
Wind  
Wind Speed 5 mph (SSW)    
Max Wind Speed 12 mph    
Max Gust Speed 20 mph    
Visibility 10 miles    
Events      
Averages and records for this station are not official NWS values.
T = Trace of Precipitation, MM = Missing Value Source: NWS Daily Summary

Daily Weather History Graph

Daily Weather History Graph

Search for Another Location

Airport or City:

Trip Planner

Search our weather history database for the weather conditions in past years. The results will help you decide how hot, cold, wet, or windy it might be!

Date:

Astronomy

May. 03, 2014 Rise Set
Actual Time 5:35 AM EDT 7:46 PM EDT
Civil Twilight 5:04 AM EDT 8:17 PM EDT
Nautical Twilight 4:26 AM EDT 8:55 PM EDT
Astronomical Twilight 3:44 AM EDT 9:37 PM EDT
Moon 9:01 AM EDT (5/3) 11:50 PM EDT (5/3)
Length of Visible Light 15h 12m
Length of Day
14h 10m
Waxing Crescent, 19% of the Moon is Illuminated
May 3
Waxing Crescent
May 6
First Quarter
May 14
Full
May 21
Last Quarter
May 28
New

Hourly Weather History & Observations

Time (EDT) Temp. Windchill Dew Point Humidity Pressure Visibility Wind Dir Wind Speed Gust Speed Precip Events Conditions
12:53 AM 53.1 °F - 37.0 °F 55% 29.79 in 10.0 mi West 3.5 mph - N/A   Mostly Cloudy
1:53 AM 52.0 °F - 39.0 °F 61% 29.80 in 10.0 mi West 4.6 mph - N/A   Overcast
2:53 AM 53.1 °F - 37.0 °F 55% 29.80 in 10.0 mi Calm Calm - N/A   Overcast
3:53 AM 50.0 °F - 37.9 °F 63% 29.81 in 10.0 mi West 3.5 mph - N/A   Mostly Cloudy
4:53 AM 48.0 °F - 37.9 °F 68% 29.81 in 10.0 mi Calm Calm - N/A   Clear
5:53 AM 46.0 °F 43.9 °F 37.0 °F 71% 29.82 in 10.0 mi SW 4.6 mph - N/A   Mostly Cloudy
6:53 AM 51.1 °F - 39.9 °F 66% 29.84 in 10.0 mi SW 6.9 mph - N/A   Mostly Cloudy
7:53 AM 54.0 °F - 39.9 °F 59% 29.85 in 10.0 mi WSW 10.4 mph - N/A   Mostly Cloudy
8:53 AM 57.0 °F - 41.0 °F 55% 29.85 in 10.0 mi West 8.1 mph - N/A   Mostly Cloudy
9:53 AM 60.1 °F - 41.0 °F 49% 29.84 in 10.0 mi WSW 10.4 mph - N/A   Mostly Cloudy
10:53 AM 64.0 °F - 42.1 °F 45% 29.82 in 10.0 mi WSW 10.4 mph 18.4 mph N/A   Mostly Cloudy
11:53 AM 64.0 °F - 37.9 °F 38% 29.79 in 10.0 mi West 9.2 mph 19.6 mph N/A   Mostly Cloudy
12:53 PM 66.0 °F - 39.0 °F 37% 29.77 in 10.0 mi SW 10.4 mph - N/A   Overcast
1:53 PM 60.1 °F - 39.9 °F 47% 29.77 in 10.0 mi SSE 11.5 mph - N/A   Overcast
2:53 PM 59.0 °F - 41.0 °F 51% 29.75 in 10.0 mi SE 6.9 mph - N/A   Overcast
3:53 PM 60.8 °F - 39.2 °F 45% 29.75 in 10.0 mi ESE 6.9 mph - N/A   Overcast
4:53 PM 57.9 °F - 39.9 °F 51% 29.72 in 10.0 mi SE 3.5 mph - N/A   Overcast
5:53 PM 57.9 °F - 39.9 °F 51% 29.71 in 10.0 mi SE 3.5 mph - N/A   Overcast
6:53 PM 57.0 °F - 39.9 °F 53% 29.71 in 10.0 mi ESE 3.5 mph - N/A   Overcast
7:53 PM 57.0 °F - 39.9 °F 53% 29.72 in 10.0 mi SE 4.6 mph - N/A   Overcast
8:53 PM 57.0 °F - 41.0 °F 55% 29.72 in 10.0 mi South 6.9 mph - N/A   Overcast
9:53 PM 52.0 °F - 46.0 °F 80% 29.73 in 10.0 mi Calm Calm - 0.00 in   Partly Cloudy
10:53 PM 54.0 °F - 45.0 °F 72% 29.71 in 10.0 mi SSW 4.6 mph - N/A   Overcast
11:53 PM 57.9 °F - 41.0 °F 53% 29.70 in 10.0 mi SW 11.5 mph - 0.00 in   Overcast